This demonstration page uses our WeatherBlox Daily Observations layout. Learn more.

Left ArrowRight Arrow

41.86663, -103.66717

Hourly Observations for June 26, 2021

Temp ( °F °C ) Dew Point ( °F °C ) Humidity (%) Winds ( mph kmh ) Pressure ( in mb ) Visibility ( mi km ) Precip ( " mm )
12:53 am 00:53 Cloudy 62 16.7 56 13.3 80 80 WNW 5 7 29.92 1013 10 16 0.00 0.00
1:53 am 01:53 Cloudy 60 15.6 55 12.8 84 84 WNW 7 11 29.92 1013 10 16 0.00 0.00
2:53 am 02:53 Mostly Cloudy 58 14.4 54 12.2 87 87 WNW 8 13 29.92 1013 10 16 N/A
3:53 am 03:53 Mostly Cloudy 57 13.9 53 11.7 87 87 WNW 5 7 29.93 1014 10 16 N/A
4:53 am 04:53 Mostly Cloudy 56 13.3 52 11.1 87 87 W 6 9 29.95 1014 10 16 N/A
5:53 am 05:53 Mostly Cloudy 56 13.3 52 11.1 87 87 WNW 7 11 29.96 1015 10 16 N/A
6:53 am 06:53 Sunny 60 15.6 53 11.7 78 78 WNW 8 13 29.96 1015 10 16 N/A
7:53 am 07:53 Sunny 65 18.3 55 12.8 70 70 WNW 8 13 29.96 1015 10 16 N/A
8:53 am 08:53 Sunny 71 21.7 49 9.4 46 46 NNW 20 31 29.95 1014 10 16 N/A
9:53 am 09:53 Sunny 70 21.1 43 6.1 38 38 NNW 16 26 29.96 1014 10 16 N/A
10:53 am 10:53 Sunny 76 24.4 40 4.4 27 27 N 24 39 29.95 1014 10 16 N/A
11:53 am 11:53 Sunny 76 24.4 44 6.7 32 32 N 23 37 29.95 1014 10 16 N/A
12:53 pm 12:53 Mostly Sunny 79 26.1 44 6.7 29 29 N 17 28 29.94 1014 10 16 N/A
1:53 pm 13:53 Partly Cloudy 78 25.6 43 6.1 29 29 N 16 26 29.94 1014 10 16 N/A
3:53 pm 15:53 Mostly Cloudy 78 25.6 43 6.1 29 29 NNW 12 19 29.93 1014 10 16 N/A
4:53 pm 16:53 Cloudy 75 23.9 46 7.8 36 36 N 10 17 29.96 1015 10 16 0.00 0.00
5:53 pm 17:53 Mostly Cloudy 72 22.2 47 8.3 41 41 N 6 9 29.98 1015 10 16 N/A
6:53 pm 18:53 Mostly Cloudy 66 18.9 49 9.4 54 54 N 15 24 30.02 1017 10 16 N/A
7:53 pm 19:53 Mostly Cloudy 65 18.3 50 10 59 59 N 8 13 30.01 1016 10 16 N/A
8:53 pm 20:53 Mostly Cloudy 63 17.2 51 10.6 65 65 WNW 3 6 30.01 1016 10 16 N/A
9:53 pm 21:53 Partly Cloudy 62 16.7 51 10.6 67 67 W 6 9 30.04 1017 10 16 N/A
10:53 pm 22:53 Clear 60 15.6 49 9.4 67 67 WNW 7 11 30.03 1017 10 16 N/A
11:53 pm 23:53 Mostly Clear 58 14.4 51 10.6 78 78 WNW 7 11 30.04 1017 10 16 N/A

Powered by AerisWeather